Location: Tierra del Sol
(32.6128°N, 116.3319°W)
Time: 02:10:34
(UTC-07:00)

OTV 5 (USA 277) - Pass Details

Date: 14 October 2017
Orbit: 404 x 417 km, 43.0° (Epoch: 07 September)

Event Time Altitude Azimuth Distance (km) Brightness Sun altitude
Rises 19:40:10 0° 297° (WNW) 2,353 ? -19.1°
Reaches altitude 10° 19:43:05 10° 324° (NW) 1,490 ? -19.7°
Maximum altitude 19:44:56 14° 357° (N) 1,272 ? -20.1°
Enters shadow 19:45:15 14° 4° (N) 1,278 ? -20.2°
